Location: Kapuskasing
(49.3803°N, 82.4001°W)
Time: 11:14:41
(UTC-04:00)

Envisat - Pass Details

Date: 19 March 2026
Orbit: 761 x 762 km, 98.4° (Epoch: 11 April)

Event Time Altitude Azimuth Distance (km) Brightness Sun altitude
Rises 06:10:01 0° 1° (N) 3,237 6.5 -14.4°
Reaches altitude 10° 06:13:24 10° 337° (NNW) 2,305 5.4 -13.9°
Maximum altitude 06:15:56 14° 307° (NW) 2,035 4.8 -13.5°
Enters shadow 06:17:13 13° 290° (WNW) 2,105 4.8 -13.3°
